Skip Page Navigation
NASA JPL Caltech
NASA Logo - Jet Propulsion Laboratory + View the NASA Portal
+ Center for Near-Earth Object Studies
JPL Home Earth Solar System Stars & Galaxies Technology
JPL Solar System Dynamics
BODIES ORBITS EPHEMERIDES TOOLS PHYSICAL DATA DISCOVERY FAQ SITE MAP
JPL Small-Body Database Browser
Search: [ help ]  
120092 (2003 EB36)
Classification: Main-belt Asteroid          SPK-ID: 2120092
Ephemeris | Orbit Diagram | Orbital Elements | Mission Design | Physical Parameters | Discovery Circumstances | Close-Approach Data ]

[ show orbit diagram ]
Orbital Elements at Epoch 2459200.5 (2020-Dec-17.0) TDB
Reference: JPL 11 (heliocentric ecliptic J2000)
 Element Value Uncertainty (1-sigma)   Units 
e .1580219508263916 5.1167e-08  
a 3.026676214164214 2.204e-08 au
q 2.548394934282148 1.4584e-07 au
i 3.068231970798345 4.8392e-06 deg
node 41.62616340089614 8.018e-05 deg
peri 114.8437737677207 8.1512e-05 deg
M 150.4749264547359 1.5985e-05 deg
tp 2458396.587074361222
(2018-Oct-05.08707436)
8.234e-05 TDB
period 1923.301509750307
5.27
2.1008e-05
5.752e-08
d
yr
n .1871781403877424 2.0446e-09 deg/d
Q 3.50495749404628 2.5523e-08 au
  Orbit Determination Parameters
   # obs. used (total)      500  
   data-arc span      8189 days (22.42 yr)  
   first obs. used      1998-03-22  
   last obs. used      2020-08-22  
   planetary ephem.      DE431  
   SB-pert. ephem.      SB431-N16  
   condition code      0  
   norm. resid. RMS      .58864  
   source      ORB  
   producer      Otto Matic  
   solution date      2020-Nov-12 17:59:35  

Additional Information
 Earth MOID = 1.55963 au 
 Jupiter MOID = 1.4855 au 
 T_jup = 3.223 
[ show covariance matrix ]

Ephemeris | Orbit Diagram | Orbital Elements | Mission Design | Physical Parameters | Discovery Circumstances | Close-Approach Data ]

Physical Parameter Table
Parameter Symbol Value Units Sigma Reference Notes
absolute magnitude H 15.39   n/a E2021B55  

120092 (2003 EB36)          Discovered 2003-Mar-07 by LONEOS at Anderson Mesa
Reference: 20051116/Numbers.arcLast Updated: 2005-11-21

[ show close-approach data ]
Alternate Designations
 2003 EB36 = 1998 HM155 = 2001 XG91 
Ephemeris | Orbit Diagram | Orbital Elements | Mission Design | Physical Parameters | Discovery Circumstances | Close-Approach Data ]
ABOUT SSD CREDITS/AWARDS PRIVACY/COPYRIGHT GLOSSARY LINKS
FirstGov 2021-Mar-08 13:41 UT
(server date/time)  
NASA Home Page
Site Manager:   Ryan S. Park
Webmaster  Alan B. Chamberlin